WetterOnline ( http://www.wetteronline.de )

Wetter aktuell Südschwarzwald (in 1400m)

Aktuelles Wetter: Feldberg/Schwarzwald (1493m)

6-stündlich | Neueste Meldungen
Ortszeit Temperatur Wetter
Di, 20.02. 7:00 -8.7° C Nebel
Di, 20.02. 1:00 -7.8° C bedeckt
Mo, 19.02. 19:00 -7.6° C Nebel
Mo, 19.02. 13:00 -5.3° C Nebel
Mo, 19.02. 7:00 -7.2° C fast wolkenlos
Mo, 19.02. 1:00 -7.9° C bedeckt
So, 18.02. 19:00 -6.9° C leichter Schneefall
So, 18.02. 13:00 -5.8° C Nebel
Ortszeit Temperatur Wetter
Di, 20.02. 8:30 -8.8° C Nebel
Di, 20.02. 8:20 -8.8° C Nebel
Di, 20.02. 8:10 -8.9° C Nebel
Di, 20.02. 8:00 -8.8° C Nebel
Di, 20.02. 7:50 -8.8° C Nebel
Di, 20.02. 7:40 -8.9° C Nebel
Di, 20.02. 7:30 -8.8° C Nebel
Di, 20.02. 7:00 -8.7° C Nebel
Di, 20.02. 6:30 -8.6° C Nebel
Di, 20.02. 6:00 -8.6° C Nebel
Di, 20.02. 5:30 -8.4° C Nebel
Ortszeit Relative Feuchte Sichtweite
Di, 20.02. 7:00 91% <100 m
Di, 20.02. 1:00 92% <100 m
Mo, 19.02. 19:00 90% <100 m
Mo, 19.02. 13:00 96% <100 m
Mo, 19.02. 7:00 92% -
Mo, 19.02. 1:00 92% -
So, 18.02. 19:00 91% -
So, 18.02. 13:00 92% 0.3 km
Ortszeit Relative Feuchte Sichtweite
Di, 20.02. 8:30 91% <100 m
Di, 20.02. 8:20 91% -
Di, 20.02. 8:10 91% -
Di, 20.02. 8:00 91% <100 m
Di, 20.02. 7:50 91% -
Di, 20.02. 7:40 91% -
Di, 20.02. 7:30 90% <100 m
Di, 20.02. 7:00 91% <100 m
Di, 20.02. 6:30 91% <100 m
Di, 20.02. 6:00 91% <100 m
Di, 20.02. 5:30 90% <100 m
Ortszeit Niederschlagsmenge Niederschlagsart
Di, 20.02. 7:00 0.0 l/m2 in 12 Std. -
Di, 20.02. 1:00 0.0 l/m2 in 6 Std. -
Mo, 19.02. 19:00 0.1 l/m2 in 12 Std. Schnee
Mo, 19.02. 13:00 0.0 l/m2 in 6 Std. -
Mo, 19.02. 7:00 0.0 l/m2 in 12 Std. -
Mo, 19.02. 1:00 0.0 l/m2 in 6 Std. -
So, 18.02. 19:00 0.1 l/m2 in 12 Std. -
So, 18.02. 13:00 0.0 l/m2 in 6 Std. -
Ortszeit Niederschlagsmenge Niederschlagsart
Di, 20.02. 8:30 0.0 l/m2 in 1 Std. -
Di, 20.02. 8:20 keine Meldung -
Di, 20.02. 8:10 keine Meldung -
Di, 20.02. 8:00 0.0 l/m2 in 1 Std. -
Di, 20.02. 7:50 keine Meldung -
Di, 20.02. 7:40 keine Meldung -
Di, 20.02. 7:30 0.0 l/m2 in 1 Std. -
Di, 20.02. 7:00 0.0 l/m2 in 1 Std. -
Di, 20.02. 6:30 0.0 l/m2 in 1 Std. -
Di, 20.02. 6:00 0.0 l/m2 in 1 Std. -
Di, 20.02. 5:30 0.0 l/m2 in 1 Std. -
Ortszeit Stärke Spitze Richtung
km/h Bft. km/h Grad Sektor
Di, 20.02. 7:00 11 2 25 30° NO
Di, 20.02. 1:00 11 2 25 310° NW
Mo, 19.02. 19:00 17 3 20 270° W
Mo, 19.02. 13:00 9 2 20 240° SW
Mo, 19.02. 7:00 4 1 29 340° N
Mo, 19.02. 1:00 11 2 47 60° NO
So, 18.02. 19:00 31 5 43 90° O
So, 18.02. 13:00 26 4 37 100° O
Ortszeit Stärke Spitze Richtung
km/h Bft. km/h Grad Sektor
Di, 20.02. 8:30 7 2 13 350° N
Di, 20.02. 8:20 7 2 - 350° N
Di, 20.02. 8:10 7 2 - 360° N
Di, 20.02. 8:00 7 2 18 360° N
Di, 20.02. 7:50 7 2 - 360° N
Di, 20.02. 7:40 7 2 - 50° NO
Di, 20.02. 7:30 11 2 18 30° NO
Di, 20.02. 7:00 11 2 18 30° NO
Di, 20.02. 6:30 11 2 14 20° N
Di, 20.02. 6:00 13 3 20 350° N
Di, 20.02. 5:30 14 3 22 360° N
Ortszeit Untergrenze Bedeckung Gattung
total tief tief mittel hoch
Di, 20.02. 7:00 <30 m 8/8 8/8 - - -
Di, 20.02. 1:00 <30 m 8/8 8/8 - - -
Mo, 19.02. 19:00 <30 m 8/8 8/8 - - -
Mo, 19.02. 13:00 <30 m 8/8 8/8 - - -
Mo, 19.02. 7:00 10500 m 1/8 0/8 - - -
Mo, 19.02. 1:00 <30 m 8/8 8/8 - - -
So, 18.02. 19:00 <30 m 8/8 8/8 - - -
So, 18.02. 13:00 <30 m 7/8 7/8 - - -
Ortszeit Bedeckungsgrad in Achtel und Wolkenuntergrenze
Di, 20.02. 8:30 8(<30m)
Di, 20.02. 8:20 8(<30m)
Di, 20.02. 8:10 8(<30m)
Di, 20.02. 8:00 8(<30m)
Di, 20.02. 7:50 8(<30m)
Di, 20.02. 7:40 8(<30m)
Di, 20.02. 7:30 8(<30m)
Di, 20.02. 7:00 8(<30m)
Di, 20.02. 6:30 8(<30m)
Di, 20.02. 6:00 8(<30m)
Di, 20.02. 5:30 8(<30m)
Ortszeit Stationsdruck (hPa) Tendenz (hPa in 3 Std.)
Di, 20.02. 7:00 841 - 0,1
Di, 20.02. 1:00 842 - 0,8
Mo, 19.02. 19:00 843 - 0,2
Mo, 19.02. 13:00 845 - 0,6
Mo, 19.02. 7:00 845 - 0,8
Mo, 19.02. 1:00 848 - 0,6
So, 18.02. 19:00 849 - 0,6
So, 18.02. 13:00 850 - 0,4
Ortszeit Stationsdruck (hPa) Tendenz (hPa in 3 Std.)
Di, 20.02. 8:30 841 + 0,2
Di, 20.02. 8:20 841 keine Meldung
Di, 20.02. 8:10 841 keine Meldung
Di, 20.02. 8:00 841 - 0,2
Di, 20.02. 7:50 841 keine Meldung
Di, 20.02. 7:40 841 keine Meldung
Di, 20.02. 7:30 841 - 0,1
Di, 20.02. 7:00 841 - 0,1
Di, 20.02. 6:30 841 - 0,1
Di, 20.02. 6:00 841 - 0,3
Di, 20.02. 5:30 841 - 0,6
Ortszeit Schneehöhe (cm)
Di, 20.02. 7:00 149
Di, 20.02. 1:00 149
Mo, 19.02. 19:00 149
Mo, 19.02. 13:00 150
Mo, 19.02. 7:00 149
Mo, 19.02. 1:00 -
So, 18.02. 19:00 134
So, 18.02. 13:00 148
Ortszeit Schneehöhe (cm)
Di, 20.02. 8:30 149
Di, 20.02. 8:20 149
Di, 20.02. 8:10 149
Di, 20.02. 8:00 149
Di, 20.02. 7:50 149
Di, 20.02. 7:40 149
Di, 20.02. 7:30 149
Di, 20.02. 7:00 149
Di, 20.02. 6:30 149
Di, 20.02. 6:00 149
Di, 20.02. 5:30 149
Link zu dieser Seite / Seite empfehlen

Das Wetter in ...